When you browse on this site, cookies collect data to enhance your experience and personalize the content and advertising you see.
Visit our Privacy Policy to learn more. By continuing to use the site, you agree to this use of cookies and data.

Stündliche Wetter San Carlos

Heute, 3 Juli, Freitag

Zeit Temperatur Niederschläge Wind Luftdruck Luftfeuchtigkeit
00:00 +25°C° 0 mm 1 m/S 744 mmHg 96%
01:00 +24°C° 0 mm 1 m/S 744 mmHg 96%
02:00 +24°C° 0 mm 1 m/S 744 mmHg 96%
03:00 +24°C° 0 mm 1 m/S 744 mmHg 95%
04:00 +24°C° 0 mm 1 m/S 744 mmHg 95%
05:00 +23°C° 0 mm 0 m/S 744 mmHg 94%
06:00 +24°C° 0 mm 0 m/S 744 mmHg 92%
07:00 +25°C° 0 mm 0 m/S 745 mmHg 90%
08:00 +28°C° 0.5 mm 1 m/S 745 mmHg 87%
09:00 +29°C° 0.5 mm 1 m/S 745 mmHg 84%
10:00 +30°C° 0.5 mm 2 m/S 745 mmHg 80%
11:00 +30°C° 1.3 mm 2 m/S 744 mmHg 80%
12:00 +30°C° 1.3 mm 2 m/S 744 mmHg 80%
13:00 +31°C° 1.3 mm 2 m/S 743 mmHg 81%
14:00 +31°C° 0.3 mm 1 m/S 743 mmHg 79%
15:00 +31°C° 0.3 mm 1 m/S 742 mmHg 77%
16:00 +31°C° 0.3 mm 1 m/S 742 mmHg 75%
17:00 +29°C° 0.5 mm 1 m/S 742 mmHg 81%
18:00 +28°C° 0.5 mm 1 m/S 743 mmHg 88%
19:00 +24°C° 0.5 mm 0 m/S 743 mmHg 94%
20:00 +26°C° 0.4 mm 1 m/S 744 mmHg 95%
21:00 +26°C° 0.4 mm 1 m/S 744 mmHg 95%
22:00 +25°C° 0.4 mm 1 m/S 745 mmHg 96%
23:00 +25°C° 0 mm 1 m/S 744 mmHg 96%

Morgen, 4 Juli, Samstag

Zeit Temperatur Niederschläge Wind Luftdruck Luftfeuchtigkeit
00:00 +25°C° 0 mm 1 m/S 744 mmHg 96%
01:00 +25°C° 0 mm 1 m/S 744 mmHg 96%
02:00 +24°C° 0 mm 1 m/S 744 mmHg 96%
03:00 +24°C° 0 mm 1 m/S 744 mmHg 96%
04:00 +24°C° 0 mm 1 m/S 744 mmHg 96%
05:00 +23°C° 0 mm 0 m/S 744 mmHg 95%
06:00 +23°C° 0 mm 0 m/S 745 mmHg 94%
07:00 +24°C° 0 mm 0 m/S 745 mmHg 93%
08:00 +28°C° 0 mm 1 m/S 745 mmHg 84%
09:00 +30°C° 0 mm 1 m/S 745 mmHg 75%
10:00 +31°C° 0 mm 2 m/S 745 mmHg 66%
11:00 +32°C° 0 mm 2 m/S 745 mmHg 64%
12:00 +32°C° 0 mm 2 m/S 744 mmHg 61%
13:00 +34°C° 0 mm 2 m/S 743 mmHg 58%
14:00 +32°C° 0 mm 1 m/S 743 mmHg 61%
15:00 +32°C° 0 mm 1 m/S 743 mmHg 63%
16:00 +32°C° 0 mm 1 m/S 742 mmHg 66%
17:00 +30°C° 0 mm 1 m/S 743 mmHg 72%
18:00 +26°C° 0 mm 0 m/S 743 mmHg 79%
19:00 +24°C° 0 mm 0 m/S 743 mmHg 86%
20:00 +24°C° 0 mm 0 m/S 744 mmHg 88%
21:00 +26°C° 0 mm 1 m/S 744 mmHg 89%
22:00 +25°C° 0 mm 1 m/S 745 mmHg 90%
23:00 +25°C° 0 mm 1 m/S 745 mmHg 91%

übermorgen, 5 Juli, Sonntag

Zeit Temperatur Niederschläge Wind Luftdruck Luftfeuchtigkeit
00:00 +24°C° 0 mm 1 m/S 744 mmHg 92%
01:00 +24°C° 0 mm 1 m/S 744 mmHg 93%
02:00 +24°C° 0 mm 1 m/S 744 mmHg 93%
03:00 +24°C° 0 mm 1 m/S 744 mmHg 92%
04:00 +24°C° 0 mm 1 m/S 744 mmHg 92%
05:00 +25°C° 0 mm 1 m/S 745 mmHg 89%
06:00 +25°C° 0 mm 1 m/S 745 mmHg 86%
07:00 +26°C° 0 mm 1 m/S 746 mmHg 83%
08:00 +28°C° 0 mm 1 m/S 746 mmHg 76%
09:00 +30°C° 0 mm 1 m/S 746 mmHg 69%
10:00 +32°C° 0 mm 1 m/S 746 mmHg 63%
11:00 +32°C° 0 mm 1 m/S 745 mmHg 60%
12:00 +34°C° 0 mm 2 m/S 745 mmHg 58%
13:00 +34°C° 0 mm 2 m/S 744 mmHg 56%
14:00 +33°C° 0 mm 1 m/S 743 mmHg 60%
15:00 +32°C° 0 mm 1 m/S 743 mmHg 64%
16:00 +32°C° 0 mm 1 m/S 742 mmHg 67%
17:00 +30°C° 0 mm 1 m/S 743 mmHg 73%
18:00 +28°C° 0 mm 1 m/S 743 mmHg 79%
19:00 +24°C° 0 mm 0 m/S 744 mmHg 85%
20:00 +24°C° 0 mm 0 m/S 744 mmHg 86%
21:00 +24°C° 0 mm 0 m/S 745 mmHg 88%
22:00 +25°C° 0 mm 1 m/S 745 mmHg 89%
23:00 +25°C° 0.8 mm 1 m/S 745 mmHg 92%

6 Juli, Montag

Zeit Temperatur Niederschläge Wind Luftdruck Luftfeuchtigkeit
00:00 +25°C° 0.8 mm 1 m/S 744 mmHg 94%
01:00 +22°C° 0.8 mm 0 m/S 744 mmHg 97%
02:00 +22°C° 0.5 mm 0 m/S 744 mmHg 97%
03:00 +22°C° 0.5 mm 0 m/S 744 mmHg 97%
04:00 +22°C° 0.5 mm 0 m/S 744 mmHg 97%
05:00 +23°C° 0.3 mm 0 m/S 745 mmHg 97%
06:00 +23°C° 0.3 mm 0 m/S 745 mmHg 96%
07:00 +24°C° 0.3 mm 0 m/S 746 mmHg 96%
08:00 +25°C° 0.5 mm 0 m/S 746 mmHg 93%
09:00 +26°C° 0.5 mm 0 m/S 746 mmHg 90%
10:00 +29°C° 0.5 mm 1 m/S 746 mmHg 87%
11:00 +29°C° 0.8 mm 1 m/S 745 mmHg 87%
12:00 +29°C° 0.8 mm 1 m/S 745 mmHg 87%
13:00 +29°C° 0.8 mm 1 m/S 744 mmHg 87%
14:00 +29°C° 1 mm 1 m/S 744 mmHg 86%
15:00 +27°C° 1 mm 0 m/S 743 mmHg 86%
16:00 +27°C° 1 mm 0 m/S 743 mmHg 86%
17:00 +26°C° 1.9 mm 0 m/S 743 mmHg 89%
18:00 +25°C° 1.9 mm 0 m/S 744 mmHg 92%
19:00 +24°C° 1.9 mm 0 m/S 744 mmHg 94%
20:00 +24°C° 0.5 mm 0 m/S 745 mmHg 95%
21:00 +23°C° 0.5 mm 0 m/S 745 mmHg 95%
22:00 +23°C° 0.5 mm 0 m/S 745 mmHg 96%
23:00 +23°C° 0.2 mm 0 m/S 745 mmHg 96%

7 Juli, Dienstag

Zeit Temperatur Niederschläge Wind Luftdruck Luftfeuchtigkeit
00:00 +23°C° 0.2 mm 0 m/S 744 mmHg 96%
01:00 +22°C° 0.2 mm 0 m/S 744 mmHg 96%
02:00 +22°C° 0.1 mm 0 m/S 744 mmHg 96%
03:00 +22°C° 0.1 mm 0 m/S 744 mmHg 96%
04:00 +22°C° 0.1 mm 0 m/S 744 mmHg 96%
05:00 +23°C° 0.3 mm 0 m/S 745 mmHg 96%
06:00 +23°C° 0.3 mm 0 m/S 745 mmHg 95%
07:00 +24°C° 0.3 mm 0 m/S 746 mmHg 95%
08:00 +26°C° 1.6 mm 1 m/S 746 mmHg 94%
09:00 +27°C° 1.6 mm 1 m/S 746 mmHg 93%
10:00 +28°C° 1.6 mm 2 m/S 746 mmHg 92%
11:00 +28°C° 1.7 mm 2 m/S 745 mmHg 91%
12:00 +29°C° 1.7 mm 1 m/S 745 mmHg 90%
13:00 +29°C° 1.7 mm 1 m/S 744 mmHg 89%
14:00 +29°C° 1.6 mm 1 m/S 744 mmHg 90%
15:00 +27°C° 1.6 mm 0 m/S 744 mmHg 91%
16:00 +26°C° 1.6 mm 0 m/S 743 mmHg 92%
17:00 +25°C° 0.2 mm 0 m/S 744 mmHg 93%
18:00 +24°C° 0.2 mm 0 m/S 744 mmHg 95%
19:00 +23°C° 0.2 mm 0 m/S 744 mmHg 96%
20:00 +23°C° 0 mm 0 m/S 745 mmHg 96%
21:00 +25°C° 0 mm 1 m/S 745 mmHg 96%
22:00 +25°C° 0 mm 1 m/S 746 mmHg 96%
23:00 +24°C° 0.1 mm 1 m/S 745 mmHg 96%

8 Juli, Mittwoch

Zeit Temperatur Niederschläge Wind Luftdruck Luftfeuchtigkeit
00:00 +24°C° 0.1 mm 1 m/S 745 mmHg 96%
01:00 +24°C° 0.1 mm 1 m/S 744 mmHg 96%
02:00 +24°C° 0 mm 1 m/S 744 mmHg 96%
03:00 +24°C° 0 mm 1 m/S 744 mmHg 95%
04:00 +24°C° 0 mm 1 m/S 744 mmHg 95%
05:00 +24°C° 0.2 mm 1 m/S 745 mmHg 95%
06:00 +23°C° 0.2 mm 0 m/S 745 mmHg 94%
07:00 +24°C° 0.2 mm 0 m/S 745 mmHg 93%
08:00 +27°C° 0.1 mm 1 m/S 745 mmHg 85%
09:00 +29°C° 0.1 mm 1 m/S 746 mmHg 77%
10:00 +31°C° 0.1 mm 2 m/S 746 mmHg 69%
11:00 +31°C° 0 mm 2 m/S 745 mmHg 66%
12:00 +32°C° 0 mm 2 m/S 745 mmHg 64%
13:00 +32°C° 0 mm 2 m/S 744 mmHg 62%
14:00 +32°C° 0.1 mm 2 m/S 744 mmHg 65%
15:00 +32°C° 0.1 mm 1 m/S 743 mmHg 68%
16:00 +31°C° 0.1 mm 1 m/S 743 mmHg 71%
17:00 +30°C° 0.1 mm 1 m/S 743 mmHg 77%
18:00 +28°C° 0.1 mm 1 m/S 743 mmHg 83%
19:00 +24°C° 0.1 mm 0 m/S 744 mmHg 89%
20:00 +26°C° 0 mm 1 m/S 744 mmHg 90%
21:00 +25°C° 0 mm 1 m/S 745 mmHg 91%
22:00 +25°C° 0 mm 1 m/S 745 mmHg 92%
23:00 +25°C° 0 mm 1 m/S 745 mmHg 93%
Mehr zeigen